N5817F -KTUS

Flight info

Callsign N5817F
Flight time N/A
Altitude
Route
Aircraft

Departure

Time N/A
Airport -

Arrival

Time 2026-05-08 22:49
Airport Tucson International Airport (KTUS)
Time Latitude Longitude Altitude Speed Heading
2026-05-08 22:40 32.18411 -110.67481 13049 ft 225 kts 129°
2026-05-08 22:41 32.17376 -110.66102 12640 ft 224 kts 129°
2026-05-08 22:41 32.16292 -110.64804 12229 ft 222 kts 143°
2026-05-08 22:41 32.14845 -110.64289 11824 ft 219 kts 178°
2026-05-08 22:41 32.13408 -110.64798 11435 ft 217 kts 209°
2026-05-08 22:42 32.12153 -110.65768 11043 ft 214 kts 214°
2026-05-08 22:42 32.10962 -110.66805 10668 ft 212 kts 217°
2026-05-08 22:42 32.09796 -110.67854 10285 ft 210 kts 217°
2026-05-08 22:42 32.08646 -110.68897 9914 ft 208 kts 217°
2026-05-08 22:43 32.07507 -110.69939 9522 ft 206 kts 218°
2026-05-08 22:43 32.06378 -110.70971 9123 ft 205 kts 218°
2026-05-08 22:43 32.05269 -110.72017 8726 ft 203 kts 226°
2026-05-08 22:43 32.04633 -110.73461 8325 ft 199 kts 256°
2026-05-08 22:44 32.04328 -110.75027 7943 ft 196 kts 261°
2026-05-08 22:44 32.04083 -110.76586 7561 ft 188 kts 262°
2026-05-08 22:44 32.03975 -110.78064 7172 ft 176 kts 272°
2026-05-08 22:44 32.03998 -110.79480 6816 ft 170 kts 274°
2026-05-08 22:45 32.04048 -110.80842 6450 ft 156 kts 275°
2026-05-08 22:45 32.04097 -110.82035 5950 ft 138 kts 275°
2026-05-08 22:45 32.04142 -110.83123 5469 ft 129 kts 276°
2026-05-08 22:45 32.04333 -110.84118 5101 ft 131 kts 290°
2026-05-08 22:46 32.04679 -110.85144 4948 ft 133 kts 296°
2026-05-08 22:46 32.05077 -110.86118 4712 ft 132 kts 301°
2026-05-08 22:46 32.05618 -110.86934 4460 ft 122 kts 313°
2026-05-08 22:46 32.06183 -110.87649 4254 ft 118 kts 315°
2026-05-08 22:47 32.06770 -110.88330 4029 ft 120 kts 315°
2026-05-08 22:47 32.07372 -110.88997 3805 ft 119 kts 313°
2026-05-08 22:47 32.07966 -110.89661 3579 ft 111 kts 312°
2026-05-08 22:47 32.08487 -110.90261 3285 ft 100 kts 313°
2026-05-08 22:48 32.08921 -110.90848 3108 ft 91 kts 321°
2026-05-08 22:48 32.09380 -110.91351 3013 ft 91 kts 322°
2026-05-08 22:48 32.09838 -110.91872 2824 ft 89 kts 319°
2026-05-08 22:48 32.10267 -110.92368 2692 ft 85 kts 318°
2026-05-08 22:49 32.10628 -110.92767 2634 ft 52 kts 317°
2026-05-08 22:49 32.10950 -110.93166 2619 ft 25 kts 316°
2026-05-08 22:49 32.11058 -110.93277 2616 ft 14 kts 337°
2026-05-08 22:50 32.11136 -110.93237 2616 ft 12 kts 31°
2026-05-08 22:50 32.11173 -110.93222 2615 ft 0 kts
2026-05-08 22:50 32.11178 -110.93221 2615 ft 4 kts
2026-05-08 22:50 32.11219 -110.93235 2615 ft 8 kts 316°